Location: Paradinas
(41.0125°N, 4.3899°W)
Time: 19:39:51
(UTC+00:00)

Daily predictions for brighter satellites

Satellite Brightness Start Highest point End
(mag) Time Altitude Azimuth Time Altitude Azimuth Time Altitude Azimuth
SL-12 R/B(2) 4.3 17:15:20 10° SSW 17:22:58 75° ESE 17:32:15 10° NE
Cosmos 1943 Rocket 2.3 17:21:30 10° S 17:27:01 62° ESE 17:32:32 10° NNE
Thor Agena Rocket 3.6 17:21:57 10° SSE 17:27:11 79° ENE 17:32:28 10° NNW
Timation 2 Rocket 4.2 17:21:23 10° SSW 17:28:11 71° ESE 17:35:02 10° NNE
Cosmos 1782 Rocket 3.9 17:23:55 10° SSW 17:28:20 71° W 17:32:45 10° N
Cosmos 2233 Rocket 4.2 17:23:43 10° S 17:30:01 83° W 17:36:23 10° N
COSMO-SKYMED 1 4.3 17:28:21 10° ENE 17:30:10 13° E 17:31:59 10° ESE
Cosmos 1300 Rocket 4.3 17:26:27 10° SSW 17:30:47 58° W 17:35:06 10° N
Cosmos 2251 Rocket 4.1 17:26:24 10° SSE 17:31:15 38° ESE 17:36:08 10° NE
BREEZE-M DEB (TANK) 2.6 17:33:17 10° W 17:35:28 41° NNW 17:39:35 10° NE
Cosmos 2058 3.9 17:32:32 10° NNE 17:35:43 23° ENE 17:38:54 10° SE
Cosmos 2061 Rocket 4.2 17:31:26 10° S 17:37:44 80° W 17:44:00 10° N
ATLAS 2AS CENTAUR R/B 4.4 17:35:09 10° N 17:38:29 14° NNE 17:41:47 10° NE
Cosmos 2082 Rocket 2.9 17:34:55 10° N 17:39:53 31° ENE 17:44:49 10° ESE
Cosmos 2278 Rocket 2.2 17:34:52 10° SSW 17:40:29 76° ESE 17:46:09 10° NNE
SAR-Lupe-1 4.1 17:38:48 10° SSE 17:42:15 54° ENE 17:45:46 10° N
MOS 1 Rocket 3.7 17:39:59 10° SE 17:43:51 33° ENE 17:47:52 10° N
Cosmos 1602 4.1 17:44:24 10° NNE 17:47:00 25° ENE 17:49:36 10° SE
AQUARIUS 4.3 17:42:49 10° SSE 17:47:02 48° ENE 17:51:18 10° N
Cosmos 1464 Rocket 4.4 17:41:45 10° SSE 17:47:31 39° E 17:53:14 10° NNE
ARIANE 5 R/B 2.4 17:43:45 10° SSE 17:48:41 74° ENE 17:53:41 10° N
Cosmos 468 Rocket 4.5 17:44:32 10° N 17:49:21 37° ENE 17:54:06 10° SE
CZ-2D R/B 4.5 17:46:22 10° ESE 17:49:43 24° ENE 17:53:07 10° NNE
Cosmos 1975 Rocket 3.2 17:45:24 10° N 17:49:46 78° W 17:54:08 10° S
SAR-Lupe-4 3.5 17:48:24 10° SSE 17:51:58 89° ENE 17:55:33 10° NNW
USA 215 3.3 17:48:13 10° ESE 17:54:41 68° NE 18:01:10 10° NW
ATLAS 5 CENTAUR R/B 3.0 17:51:03 10° NW 17:55:37 51° WSW 18:01:12 10° SSE
Cosmos 2151 Rocket 4.0 17:53:58 10° SSE 17:58:10 41° E 18:02:23 10° NNE
Cosmos 1862 4.0 17:55:02 10° NNE 17:58:11 27° ENE 18:01:17 10° SE
Cosmos 1190 Rocket 4.1 17:53:48 10° S 17:58:58 59° ESE 18:04:10 10° NNE
CZ-2D R/B 2.7 17:56:47 10° S 17:59:55 85° WSW 18:03:05 10° NNW
ISS -2.0 17:58:50 10° W 18:01:37 24° NNW 18:03:52 13° NNE
Cosmos 1812 1.8 17:59:34 10° S 18:02:27 88° E 18:05:22 10° N
OAO 3 Rocket 4.1 17:59:34 10° WSW 18:03:56 40° S 18:07:35 14° ESE
Cosmos 1656 Rocket 4.5 18:00:04 10° SSE 18:04:46 29° ESE 18:07:59 17° NE
Okean 1 Rocket 3.8 18:01:04 10° SSE 18:04:54 30° E 18:08:25 12° NNE
Cosmos 407 Rocket 4.3 18:04:22 10° SW 18:09:24 51° WNW 18:14:25 10° N
SKYMED 2 3.7 18:05:44 10° NNE 18:09:59 52° E 18:14:13 10° S
Sich 1 Rocket 4.2 18:06:29 10° SSE 18:10:36 36° E 18:14:47 10° NNE
Cosmos 1954 Rocket 4.0 18:06:12 10° S 18:11:23 61° ESE 18:16:34 10° NNE
IRS-P3 4.1 18:07:42 10° SSE 18:13:02 85° ENE 18:18:23 10° NNW
BlueWalker 3 2.8 18:11:40 10° SSW 18:14:49 29° SE 18:15:39 26° ESE
COSMOS 2406 3.8 18:10:29 10° N 18:15:35 33° ENE 18:19:01 18° ESE
SL-19 R/B 4.5 18:12:10 10° SE 18:16:59 39° ENE 18:21:49 10° N
SMAP 4.3 18:13:15 10° S 18:17:41 44° W 18:22:09 10° NNW
Cosmos 968 Rocket 4.4 18:15:50 10° SSE 18:19:57 25° E 18:20:21 25° E
SJ 16-02 1.2 18:16:25 10° SSW 18:20:42 77° ESE 18:24:28 13° NNE
Cosmos 1072 Rocket 4.4 18:15:00 10° S 18:21:08 80° E 18:27:16 10° N
Cosmos 44 Rocket 4.2 18:16:58 10° SW 18:21:31 45° NW 18:26:14 10° NNE
YAOGAN 1 2.8 18:18:39 10° SE 18:22:38 41° ENE 18:26:39 10° N
OAO 2 Rocket 4.4 18:19:01 10° WSW 18:23:39 38° S 18:27:11 16° SE
SPOT 1/Viking Rocket 3.5 18:19:11 10° SSE 18:24:16 65° ENE 18:29:25 10° N
Cosmos 540 Rocket 3.9 18:22:18 10° NNW 18:27:21 62° WSW 18:32:22 10° S
BREEZE M DEB (TANK) 4.4 18:27:18 10° S 18:28:15 13° SSE 18:28:15 13° SSE
Cosmos 2344 4.3 18:25:33 10° NNW 18:33:04 41° NE 18:38:34 24° E
Spot 4 Rocket 3.9 18:30:00 10° SSE 18:35:02 67° ENE 18:40:06 10° N
DELTA 2 R/B (1) 4.2 18:31:02 10° SW 18:36:14 43° SSE 18:38:13 31° ESE
RESURS DK-1 3.7 18:33:15 10° NW 18:37:00 39° WSW 18:40:42 10° S
Resurs 1-3 3.5 18:32:54 10° SSE 18:37:06 56° ENE 18:41:19 10° N
CZ-4 R/B 4.5 18:35:06 10° S 18:39:04 75° W 18:43:02 10° NNW
Meteor 2-3 Rocket 3.9 18:33:51 10° N 18:39:18 45° ENE 18:44:39 10° SSE
Cosmos 1400 Rocket 3.0 18:39:00 10° SSW 18:42:46 65° W 18:45:47 15° N
Cosmos 304 Rocket 3.8 18:40:45 10° SSW 18:45:28 77° WNW 18:48:46 20° NNE
Nadezhda 4 Rocket 3.9 18:39:37 10° N 18:45:55 90° ENE 18:52:07 10° S
Cosmos 371 Rocket 3.3 18:42:31 10° SSW 18:47:18 77° WNW 18:50:35 21° NNE
Helios 1A Rocket 2.7 18:50:27 49° NNW 18:51:10 65° WNW 18:54:31 10° SSW
Cosmos 1536 Rocket 3.9 18:47:16 10° NNW 18:51:40 66° W 18:55:59 10° S
Okean 2 Rocket 3.5 18:48:19 10° SSW 18:52:40 62° W 18:57:01 10° N
Cosmos 1627 Rocket 4.4 18:50:14 10° N 18:56:17 58° E 19:02:20 10° SSE
Cosmos 2195 Rocket 4.4 18:53:31 10° N 18:59:51 78° E 19:06:11 10° S
NOAA 6 3.9 18:58:09 10° SSE 19:03:17 80° ENE 19:08:26 10° N
COSMO-SKYMED 1 3.2 19:03:10 20° N 19:05:46 51° WNW 19:09:45 10° SSW
ATLAS 2A CENTAUR R/B 4.5 18:59:59 10° WSW 19:08:34 22° SSW 19:10:52 17° SSE
BREEZE-M DEB (TANK) 4.4 19:07:50 10° WNW 19:11:03 39° N 19:11:48 37° NNE
Cosmos 1943 Rocket 4.4 19:07:01 10° W 19:11:11 21° NW 19:15:21 10° N
BREEZE-M DEB (TANK) 3.8 18:58:24 10° WNW 19:11:29 82° NNE 19:12:27 62° E
Cosmos 841 Rocket 3.6 19:11:41 10° NNW 19:16:57 76° WSW 19:19:04 37° S
DMSP B5D1-3 4.4 19:20:18 88° W 19:20:18 88° W 19:25:24 10° SSW
Cosmos 2082 Rocket 3.5 19:18:50 10° NW 19:23:58 38° WSW 19:29:05 10° S
ATLAS 2AS CENTAUR R/B 3.4 19:24:56 10° NNW 19:29:41 37° NNE 19:29:41 37° NNE
Cosmos 1634 Rocket 3.9 19:26:44 10° S 19:33:01 86° W 19:34:50 50° N
Cosmos 2369 Rocket 2.7 19:27:57 10° SSW 19:31:59 50° SSW 19:31:59 50° SSW
Cosmos 2297 4.2 19:29:28 10° SSW 19:33:36 50° SSW 19:33:36 50° SSW
USA 281 4.1 19:58:22 39° NNW 19:58:22 39° NNW 20:02:16 10° NNW
SJ 16-02 4.4 19:58:23 10° WNW 19:59:23 11° NW 20:00:22 10° NW
